Year,Month,Day,Hour,Minute,Value (Times are PST for temperature in C)
2015,06,27,00,00,18.70
2015,06,27,00,01,18.60
2015,06,27,00,02,18.60
2015,06,27,00,03,18.60
2015,06,27,00,04,18.60
2015,06,27,00,05,18.50
2015,06,27,00,06,18.50
2015,06,27,00,07,18.50
2015,06,27,00,08,18.50
2015,06,27,00,09,18.50
2015,06,27,00,10,18.50
2015,06,27,00,11,18.60
2015,06,27,00,12,18.60
2015,06,27,00,13,18.60
2015,06,27,00,14,18.60
2015,06,27,00,15,18.60
2015,06,27,00,16,18.60
2015,06,27,00,17,18.60
2015,06,27,00,18,18.70
2015,06,27,00,19,18.70
2015,06,27,00,20,18.70
2015,06,27,00,21,18.70
2015,06,27,00,22,18.70
2015,06,27,00,23,18.80
2015,06,27,00,24,18.80
2015,06,27,00,25,18.80
2015,06,27,00,26,18.80
2015,06,27,00,27,18.80
2015,06,27,00,28,18.80
2015,06,27,00,29,18.80
2015,06,27,00,30,18.80
2015,06,27,00,31,18.80
2015,06,27,00,32,18.80
2015,06,27,00,33,18.80
2015,06,27,00,34,18.80
2015,06,27,00,35,18.80
2015,06,27,00,36,18.70
2015,06,27,00,37,18.70
2015,06,27,00,38,18.70
2015,06,27,00,39,18.70
2015,06,27,00,40,18.70
2015,06,27,00,41,18.60
2015,06,27,00,42,18.60
2015,06,27,00,43,18.60
2015,06,27,00,44,18.50
2015,06,27,00,45,18.50
2015,06,27,00,46,18.40
2015,06,27,00,47,18.40
2015,06,27,00,48,18.40
2015,06,27,00,49,18.40
2015,06,27,00,50,18.30
2015,06,27,00,51,18.30
2015,06,27,00,52,18.20
2015,06,27,00,53,18.20
2015,06,27,00,54,18.20
2015,06,27,00,55,18.20
2015,06,27,00,56,18.20
2015,06,27,00,57,18.10
2015,06,27,00,58,18.10
2015,06,27,00,59,18.10
2015,06,27,01,00,18.10
2015,06,27,01,01,18.10
2015,06,27,01,02,18.10
2015,06,27,01,03,18.10
2015,06,27,01,04,18.00
2015,06,27,01,05,18.00
2015,06,27,01,06,18.00
2015,06,27,01,07,18.00
2015,06,27,01,08,18.00
2015,06,27,01,09,17.90
2015,06,27,01,10,17.90
2015,06,27,01,11,18.00
2015,06,27,01,12,18.10
2015,06,27,01,13,18.10
2015,06,27,01,14,18.10
2015,06,27,01,15,18.10
2015,06,27,01,16,18.10
2015,06,27,01,17,18.10
2015,06,27,01,18,18.10
2015,06,27,01,19,18.10
2015,06,27,01,20,18.10
2015,06,27,01,21,18.10
2015,06,27,01,22,18.10
2015,06,27,01,23,18.10
2015,06,27,01,24,18.00
2015,06,27,01,25,18.00
2015,06,27,01,26,18.00
2015,06,27,01,27,17.90
2015,06,27,01,28,17.90
2015,06,27,01,29,17.90
2015,06,27,01,30,17.90
2015,06,27,01,31,17.90
2015,06,27,01,32,17.80
2015,06,27,01,33,17.80
2015,06,27,01,34,17.80
2015,06,27,01,35,17.80
2015,06,27,01,36,17.80
2015,06,27,01,37,17.70
2015,06,27,01,38,17.70
2015,06,27,01,39,17.70
2015,06,27,01,40,17.60
2015,06,27,01,41,17.60
2015,06,27,01,42,17.50
2015,06,27,01,43,17.50
2015,06,27,01,44,17.40
2015,06,27,01,45,17.40
2015,06,27,01,46,17.30
2015,06,27,01,47,17.30
2015,06,27,01,48,17.20
2015,06,27,01,49,17.20
2015,06,27,01,50,17.10
2015,06,27,01,51,17.10
2015,06,27,01,52,17.00
2015,06,27,01,53,17.00
2015,06,27,01,54,16.90
2015,06,27,01,55,16.90
2015,06,27,01,56,16.90
2015,06,27,01,57,16.80
2015,06,27,01,58,16.80
2015,06,27,01,59,16.80
2015,06,27,02,00,16.70
2015,06,27,02,01,16.70
2015,06,27,02,02,16.70
2015,06,27,02,03,16.70
2015,06,27,02,04,16.70
2015,06,27,02,05,16.60
2015,06,27,02,06,16.60
2015,06,27,02,07,16.60
2015,06,27,02,08,16.60
2015,06,27,02,09,16.60
2015,06,27,02,10,16.60
2015,06,27,02,11,16.50
2015,06,27,02,12,16.50
2015,06,27,02,13,16.50
2015,06,27,02,14,16.50
2015,06,27,02,15,16.50
2015,06,27,02,16,16.50
2015,06,27,02,17,16.40
2015,06,27,02,18,16.40
2015,06,27,02,19,16.40
2015,06,27,02,20,16.40
2015,06,27,02,21,16.40
2015,06,27,02,22,16.40
2015,06,27,02,23,16.40
2015,06,27,02,24,16.40
2015,06,27,02,25,16.40
2015,06,27,02,26,16.40
2015,06,27,02,27,16.50
2015,06,27,02,28,16.50
2015,06,27,02,29,16.60
2015,06,27,02,30,16.60
2015,06,27,02,31,16.60
2015,06,27,02,32,16.60
2015,06,27,02,33,16.60
2015,06,27,02,34,16.60
2015,06,27,02,35,16.60
2015,06,27,02,36,16.60
2015,06,27,02,37,16.60
2015,06,27,02,38,16.50
2015,06,27,02,39,16.50
2015,06,27,02,40,16.50
2015,06,27,02,41,16.40
2015,06,27,02,42,16.30
2015,06,27,02,43,16.30
2015,06,27,02,44,16.20
2015,06,27,02,45,16.20
2015,06,27,02,46,16.10
2015,06,27,02,47,16.10
2015,06,27,02,48,16.00
2015,06,27,02,49,16.00
2015,06,27,02,50,15.90
2015,06,27,02,51,15.80
2015,06,27,02,52,15.80
2015,06,27,02,53,15.70
2015,06,27,02,54,15.70
2015,06,27,02,55,15.70
2015,06,27,02,56,15.60
2015,06,27,02,57,15.60
2015,06,27,02,58,15.50
2015,06,27,02,59,15.50
2015,06,27,03,00,15.40
2015,06,27,03,01,15.40
2015,06,27,03,02,15.40
2015,06,27,03,03,15.40
2015,06,27,03,04,15.30
2015,06,27,03,05,15.30
2015,06,27,03,06,15.30
2015,06,27,03,07,15.30
2015,06,27,03,08,15.30
2015,06,27,03,09,15.20
2015,06,27,03,10,15.20
2015,06,27,03,11,15.20
2015,06,27,03,12,15.20
2015,06,27,03,13,15.20
2015,06,27,03,14,15.10
2015,06,27,03,15,15.10
2015,06,27,03,16,15.10
2015,06,27,03,17,15.10
2015,06,27,03,18,15.00
2015,06,27,03,19,15.00
2015,06,27,03,20,15.00
2015,06,27,03,21,15.00
2015,06,27,03,22,15.00
2015,06,27,03,23,15.00
2015,06,27,03,24,15.00
2015,06,27,03,25,15.00
2015,06,27,03,26,15.00
2015,06,27,03,27,15.00
2015,06,27,03,28,15.00
2015,06,27,03,29,15.00
2015,06,27,03,30,15.00
2015,06,27,03,31,15.00
2015,06,27,03,32,15.00
2015,06,27,03,33,15.00
2015,06,27,03,34,15.00
2015,06,27,03,35,15.00
2015,06,27,03,36,15.00
2015,06,27,03,37,15.00
2015,06,27,03,38,15.00
2015,06,27,03,39,15.00
2015,06,27,03,40,15.00
2015,06,27,03,41,15.00
2015,06,27,03,42,15.00
2015,06,27,03,43,15.00
2015,06,27,03,44,15.00
2015,06,27,03,45,15.00
2015,06,27,03,46,15.00
2015,06,27,03,47,15.00
2015,06,27,03,48,15.00
2015,06,27,03,49,15.00
2015,06,27,03,50,15.00
2015,06,27,03,51,15.00
2015,06,27,03,52,15.00
2015,06,27,03,53,15.00
2015,06,27,03,54,15.00
2015,06,27,03,55,15.00
2015,06,27,03,56,15.00
2015,06,27,03,57,15.00
2015,06,27,03,58,15.00
2015,06,27,03,59,15.00
2015,06,27,04,00,15.00
2015,06,27,04,01,15.00
2015,06,27,04,02,15.00
2015,06,27,04,03,15.00
2015,06,27,04,04,15.00
2015,06,27,04,05,15.00
2015,06,27,04,06,15.00
2015,06,27,04,07,15.00
2015,06,27,04,08,15.00
2015,06,27,04,09,15.00
2015,06,27,04,10,15.00
2015,06,27,04,11,15.00
2015,06,27,04,12,15.00
2015,06,27,04,13,15.00
2015,06,27,04,14,15.00
2015,06,27,04,15,15.00
2015,06,27,04,16,15.00
2015,06,27,04,17,15.00
2015,06,27,04,18,15.00
2015,06,27,04,19,15.00
2015,06,27,04,20,15.00
2015,06,27,04,21,15.00
2015,06,27,04,22,15.00
2015,06,27,04,23,15.00
2015,06,27,04,24,15.00
2015,06,27,04,25,15.00
2015,06,27,04,26,15.00
2015,06,27,04,27,15.00
2015,06,27,04,28,14.90
2015,06,27,04,29,14.90
2015,06,27,04,30,14.90
2015,06,27,04,31,14.90
2015,06,27,04,32,14.80
2015,06,27,04,33,14.80
2015,06,27,04,34,14.80
2015,06,27,04,35,14.80
2015,06,27,04,36,14.80
2015,06,27,04,37,14.70
2015,06,27,04,38,14.70
2015,06,27,04,39,14.70
2015,06,27,04,40,14.60
2015,06,27,04,41,14.60
2015,06,27,04,42,14.60
2015,06,27,04,43,14.60
2015,06,27,04,44,14.60
2015,06,27,04,45,14.50
2015,06,27,04,46,14.50
2015,06,27,04,47,14.50
2015,06,27,04,48,14.50
2015,06,27,04,49,14.40
2015,06,27,04,50,14.40
2015,06,27,04,51,14.40
2015,06,27,04,52,14.40
2015,06,27,04,53,14.40
2015,06,27,04,54,14.40
2015,06,27,04,55,14.40
2015,06,27,04,56,14.40
2015,06,27,04,57,14.40
2015,06,27,04,58,14.30
2015,06,27,04,59,14.30
2015,06,27,05,00,14.30
2015,06,27,05,01,14.30
2015,06,27,05,02,14.30
2015,06,27,05,03,14.30
2015,06,27,05,04,14.30
2015,06,27,05,05,14.20
2015,06,27,05,06,14.20
2015,06,27,05,07,14.20
2015,06,27,05,08,14.20
2015,06,27,05,09,14.20
2015,06,27,05,10,14.20
2015,06,27,05,11,14.20
2015,06,27,05,12,14.20
2015,06,27,05,13,14.20
2015,06,27,05,14,14.20
2015,06,27,05,15,14.20
2015,06,27,05,16,14.20
2015,06,27,05,17,14.20
2015,06,27,05,18,14.20
2015,06,27,05,19,14.20
2015,06,27,05,20,14.20
2015,06,27,05,21,14.20
2015,06,27,05,22,14.20
2015,06,27,05,23,14.20
2015,06,27,05,24,14.10
2015,06,27,05,25,14.10
2015,06,27,05,26,14.10
2015,06,27,05,27,14.10
2015,06,27,05,28,14.10
2015,06,27,05,29,14.10
2015,06,27,05,30,14.10
2015,06,27,05,31,14.00
2015,06,27,05,32,14.00
2015,06,27,05,33,14.00
2015,06,27,05,34,14.00
2015,06,27,05,35,14.00
2015,06,27,05,36,14.00
2015,06,27,05,37,14.10
2015,06,27,05,38,14.10
2015,06,27,05,39,14.10
2015,06,27,05,40,14.10
2015,06,27,05,41,14.10
2015,06,27,05,42,14.10
2015,06,27,05,43,14.10
2015,06,27,05,44,14.10
2015,06,27,05,45,14.20
2015,06,27,05,46,14.20
2015,06,27,05,47,14.20
2015,06,27,05,48,14.20
2015,06,27,05,49,14.20
2015,06,27,05,50,14.20
2015,06,27,05,51,14.30
2015,06,27,05,52,14.30
2015,06,27,05,53,14.40
2015,06,27,05,54,14.40
2015,06,27,05,55,14.40
2015,06,27,05,56,14.40
2015,06,27,05,57,14.50
2015,06,27,05,58,14.50
2015,06,27,05,59,14.50
2015,06,27,06,00,14.60
2015,06,27,06,01,14.60
2015,06,27,06,02,14.60
2015,06,27,06,03,14.60
2015,06,27,06,04,14.60
2015,06,27,06,05,14.60
2015,06,27,06,06,14.70
2015,06,27,06,07,14.70
2015,06,27,06,08,14.70
2015,06,27,06,09,14.70
2015,06,27,06,10,14.80
2015,06,27,06,11,14.80
2015,06,27,06,12,14.80
2015,06,27,06,13,14.80
2015,06,27,06,14,14.90
2015,06,27,06,15,14.90
2015,06,27,06,16,15.00
2015,06,27,06,17,15.00
2015,06,27,06,18,15.00
2015,06,27,06,19,15.00
2015,06,27,06,20,15.00
2015,06,27,06,21,15.00
2015,06,27,06,22,15.00
2015,06,27,06,23,15.10
2015,06,27,06,24,15.20
2015,06,27,06,25,15.30
2015,06,27,06,26,15.30
2015,06,27,06,27,15.40
2015,06,27,06,28,15.50
2015,06,27,06,29,15.60
2015,06,27,06,30,15.70
2015,06,27,06,31,15.80
2015,06,27,06,32,15.90
2015,06,27,06,33,16.00
2015,06,27,06,34,16.10
2015,06,27,06,35,16.20
2015,06,27,06,36,16.30
2015,06,27,06,37,16.40
2015,06,27,06,38,16.50
2015,06,27,06,39,16.50
2015,06,27,06,40,16.60
2015,06,27,06,41,16.70
2015,06,27,06,42,16.80
2015,06,27,06,43,16.90
2015,06,27,06,44,17.00
2015,06,27,06,45,17.10
2015,06,27,06,46,17.10
2015,06,27,06,47,17.20
2015,06,27,06,48,17.20
2015,06,27,06,49,17.20
2015,06,27,06,50,17.30
2015,06,27,06,51,17.30
2015,06,27,06,52,17.30
2015,06,27,06,53,17.40
2015,06,27,06,54,17.40
2015,06,27,06,55,17.40
2015,06,27,06,56,17.50
2015,06,27,06,57,17.50
2015,06,27,06,58,17.50
2015,06,27,06,59,17.50
2015,06,27,07,00,17.50
2015,06,27,07,01,17.50
2015,06,27,07,02,17.60
2015,06,27,07,03,17.60
2015,06,27,07,04,17.60
2015,06,27,07,05,17.60
2015,06,27,07,06,17.70
2015,06,27,07,07,17.70
2015,06,27,07,08,17.70
2015,06,27,07,09,17.70
2015,06,27,07,10,17.80
2015,06,27,07,11,17.80
2015,06,27,07,12,17.90
2015,06,27,07,13,18.00
2015,06,27,07,14,18.00
2015,06,27,07,15,18.10
2015,06,27,07,16,18.20
2015,06,27,07,17,18.20
2015,06,27,07,18,18.30
2015,06,27,07,19,18.30
2015,06,27,07,20,18.40
2015,06,27,07,21,18.50
2015,06,27,07,22,18.50
2015,06,27,07,23,18.60
2015,06,27,07,24,18.70
2015,06,27,07,25,18.80
2015,06,27,07,26,18.80
2015,06,27,07,27,18.90
2015,06,27,07,28,19.00
2015,06,27,07,29,19.00
2015,06,27,07,30,19.10
2015,06,27,07,31,19.10
2015,06,27,07,32,19.20
2015,06,27,07,33,19.20
2015,06,27,07,34,19.30
2015,06,27,07,35,19.30
2015,06,27,07,36,19.30
2015,06,27,07,37,19.40
2015,06,27,07,38,19.50
2015,06,27,07,39,19.50
2015,06,27,07,40,19.60
2015,06,27,07,41,19.70
2015,06,27,07,42,19.80
2015,06,27,07,43,19.90
2015,06,27,07,44,20.00
2015,06,27,07,45,20.10
2015,06,27,07,46,20.10
2015,06,27,07,47,20.20
2015,06,27,07,48,20.30
2015,06,27,07,49,20.30
2015,06,27,07,50,20.40
2015,06,27,07,51,20.40
2015,06,27,07,52,20.50
2015,06,27,07,53,20.50
2015,06,27,07,54,20.50
2015,06,27,07,55,20.50
2015,06,27,07,56,20.50
2015,06,27,07,57,20.50
2015,06,27,07,58,20.50
2015,06,27,07,59,20.60
2015,06,27,08,00,20.60
2015,06,27,08,01,20.60
2015,06,27,08,02,20.60
2015,06,27,08,03,20.70
2015,06,27,08,04,20.80
2015,06,27,08,05,20.80
2015,06,27,08,06,20.80
2015,06,27,08,07,20.90
2015,06,27,08,08,20.90
2015,06,27,08,09,21.00
2015,06,27,08,10,21.10
2015,06,27,08,11,21.10
2015,06,27,08,12,21.20
2015,06,27,08,13,21.30
2015,06,27,08,14,21.30
2015,06,27,08,15,21.40
2015,06,27,08,16,21.40
2015,06,27,08,17,21.50
2015,06,27,08,18,21.60
2015,06,27,08,19,21.60
2015,06,27,08,20,21.70
2015,06,27,08,21,21.70
2015,06,27,08,22,21.70
2015,06,27,08,23,21.80
2015,06,27,08,24,21.80
2015,06,27,08,25,21.80
2015,06,27,08,26,21.80
2015,06,27,08,27,21.80
2015,06,27,08,28,21.80
2015,06,27,08,29,21.80
2015,06,27,08,30,21.70
2015,06,27,08,31,21.70
2015,06,27,08,32,21.70
2015,06,27,08,33,21.70
2015,06,27,08,34,21.70
2015,06,27,08,35,21.70
2015,06,27,08,36,21.70
2015,06,27,08,37,21.60
2015,06,27,08,38,21.60
2015,06,27,08,39,21.60
2015,06,27,08,40,21.70
2015,06,27,08,41,21.70
2015,06,27,08,42,21.70
2015,06,27,08,43,21.70
2015,06,27,08,44,21.70
2015,06,27,08,45,21.60
2015,06,27,08,46,21.60
2015,06,27,08,47,21.60
2015,06,27,08,48,21.60
2015,06,27,08,49,21.70
2015,06,27,08,50,21.70
2015,06,27,08,51,21.70
2015,06,27,08,52,21.70
2015,06,27,08,53,21.70
2015,06,27,08,54,21.70
2015,06,27,08,55,21.60
2015,06,27,08,56,21.50
2015,06,27,08,57,21.40
2015,06,27,08,58,21.40
2015,06,27,08,59,21.40
2015,06,27,09,00,21.40
2015,06,27,09,01,21.50
2015,06,27,09,02,21.50
2015,06,27,09,03,21.60
2015,06,27,09,04,21.60
2015,06,27,09,05,21.60
2015,06,27,09,06,21.70
2015,06,27,09,07,21.70
2015,06,27,09,08,21.80
2015,06,27,09,09,21.80
2015,06,27,09,10,21.80
2015,06,27,09,11,21.80
2015,06,27,09,12,21.80
2015,06,27,09,13,21.80
2015,06,27,09,14,21.70
2015,06,27,09,15,21.70
2015,06,27,09,16,21.70
2015,06,27,09,17,21.70
2015,06,27,09,18,21.70
2015,06,27,09,19,21.70
2015,06,27,09,20,21.80
2015,06,27,09,21,21.80
2015,06,27,09,22,21.80
2015,06,27,09,23,21.80
2015,06,27,09,24,21.80
2015,06,27,09,25,21.90
2015,06,27,09,26,21.90
2015,06,27,09,27,21.90
2015,06,27,09,28,22.00
2015,06,27,09,29,22.00
2015,06,27,09,30,22.00
2015,06,27,09,31,22.00
2015,06,27,09,32,22.00
2015,06,27,09,33,22.00
2015,06,27,09,34,22.00
2015,06,27,09,35,22.20
2015,06,27,09,36,22.20
2015,06,27,09,37,22.20
2015,06,27,09,38,22.20
2015,06,27,09,39,22.20
2015,06,27,09,40,22.20
2015,06,27,09,41,22.20
2015,06,27,09,42,22.20
2015,06,27,09,43,22.30
2015,06,27,09,44,22.30
2015,06,27,09,45,22.30
2015,06,27,09,46,22.30
2015,06,27,09,47,22.40
2015,06,27,09,48,22.40
2015,06,27,09,49,22.30
2015,06,27,09,50,21.90
2015,06,27,09,51,21.20
2015,06,27,09,52,20.50
2015,06,27,09,53,20.10
2015,06,27,09,54,19.80
2015,06,27,09,55,19.70
2015,06,27,09,56,19.30
2015,06,27,09,57,18.90
2015,06,27,09,58,18.50
2015,06,27,09,59,18.20
2015,06,27,10,00,17.90
2015,06,27,10,01,17.50
2015,06,27,10,02,17.30
2015,06,27,10,03,17.10
2015,06,27,10,04,16.90
2015,06,27,10,05,16.80
2015,06,27,10,06,16.70
2015,06,27,10,07,16.70
2015,06,27,10,08,16.70
2015,06,27,10,09,16.70
2015,06,27,10,10,16.80
2015,06,27,10,11,16.80
2015,06,27,10,12,16.90
2015,06,27,10,13,17.00
2015,06,27,10,14,17.20
2015,06,27,10,15,17.30
2015,06,27,10,16,17.40
2015,06,27,10,17,17.50
2015,06,27,10,18,17.60
2015,06,27,10,19,17.70
2015,06,27,10,20,17.80
2015,06,27,10,21,18.00
2015,06,27,10,22,18.20
2015,06,27,10,23,18.50
2015,06,27,10,24,18.70
2015,06,27,10,25,18.90
2015,06,27,10,26,19.20
2015,06,27,10,27,19.30
2015,06,27,10,28,19.50
2015,06,27,10,29,19.70
2015,06,27,10,30,19.90
2015,06,27,10,31,20.10
2015,06,27,10,32,20.30
2015,06,27,10,33,20.50
2015,06,27,10,34,20.60
2015,06,27,10,35,20.70
2015,06,27,10,36,20.90
2015,06,27,10,37,21.00
2015,06,27,10,38,21.20
2015,06,27,10,39,21.40
2015,06,27,10,40,21.60
2015,06,27,10,41,21.70
2015,06,27,10,42,21.90
2015,06,27,10,43,22.10
2015,06,27,10,44,22.20
2015,06,27,10,45,22.40
2015,06,27,10,46,22.60
2015,06,27,10,47,22.70
2015,06,27,10,48,22.80
2015,06,27,10,49,22.90
2015,06,27,10,50,23.00
2015,06,27,10,51,23.10
2015,06,27,10,52,23.20
2015,06,27,10,53,23.20
2015,06,27,10,54,23.30
2015,06,27,10,55,23.30
2015,06,27,10,56,23.30
2015,06,27,10,57,23.40
2015,06,27,10,58,23.50
2015,06,27,10,59,23.60
2015,06,27,11,00,23.70
2015,06,27,11,01,23.80
2015,06,27,11,02,23.90
2015,06,27,11,03,24.00
2015,06,27,11,04,24.20
2015,06,27,11,05,24.30
2015,06,27,11,06,24.50
2015,06,27,11,07,24.70
2015,06,27,11,08,24.80
2015,06,27,11,09,24.90
2015,06,27,11,10,24.90
2015,06,27,11,11,25.00
2015,06,27,11,12,25.00
2015,06,27,11,13,24.90
2015,06,27,11,14,24.90
2015,06,27,11,15,24.90
2015,06,27,11,16,24.90
2015,06,27,11,17,24.90
2015,06,27,11,18,24.90
2015,06,27,11,19,24.90
2015,06,27,11,20,24.90
2015,06,27,11,21,24.90
2015,06,27,11,22,24.90
2015,06,27,11,23,24.90
2015,06,27,11,24,25.00
2015,06,27,11,25,25.10
2015,06,27,11,26,25.10
2015,06,27,11,27,25.20
2015,06,27,11,28,25.20
2015,06,27,11,29,25.20
2015,06,27,11,30,25.20
2015,06,27,11,31,25.20
2015,06,27,11,32,25.20
2015,06,27,11,33,25.20
2015,06,27,11,34,25.20
2015,06,27,11,35,25.20
2015,06,27,11,36,25.20
2015,06,27,11,37,25.20
2015,06,27,11,38,25.20
2015,06,27,11,39,25.30
2015,06,27,11,40,25.30
2015,06,27,11,41,25.40
2015,06,27,11,42,25.30
2015,06,27,11,43,25.30
2015,06,27,11,44,25.30
2015,06,27,11,45,25.30
2015,06,27,11,46,25.30
2015,06,27,11,47,25.40
2015,06,27,11,48,25.40
2015,06,27,11,49,25.40
2015,06,27,11,50,25.40
2015,06,27,11,51,25.50
2015,06,27,11,52,25.50
2015,06,27,11,53,25.50
2015,06,27,11,54,25.50
2015,06,27,11,55,25.50
2015,06,27,11,56,25.40
2015,06,27,11,57,25.40
2015,06,27,11,58,25.40
2015,06,27,11,59,25.40
2015,06,27,12,00,25.40
2015,06,27,12,01,25.50
2015,06,27,12,02,25.50
2015,06,27,12,03,25.50
2015,06,27,12,04,25.60
2015,06,27,12,05,25.70
2015,06,27,12,06,25.80
2015,06,27,12,07,25.90
2015,06,27,12,08,25.90
2015,06,27,12,09,25.90
2015,06,27,12,10,25.90
2015,06,27,12,11,25.90
2015,06,27,12,12,25.90
2015,06,27,12,13,25.90
2015,06,27,12,14,25.90
2015,06,27,12,15,25.90
2015,06,27,12,16,25.90
2015,06,27,12,17,25.90
2015,06,27,12,18,25.90
2015,06,27,12,19,26.00
2015,06,27,12,20,26.00
2015,06,27,12,21,26.00
2015,06,27,12,22,26.10
2015,06,27,12,23,26.20
2015,06,27,12,24,26.30
2015,06,27,12,25,26.30
2015,06,27,12,26,26.30
2015,06,27,12,27,26.30
2015,06,27,12,28,26.30
2015,06,27,12,29,26.30
2015,06,27,12,30,26.30
2015,06,27,12,31,26.40
2015,06,27,12,32,26.50
2015,06,27,12,33,26.60
2015,06,27,12,34,26.60
2015,06,27,12,35,26.60
2015,06,27,12,36,26.60
2015,06,27,12,37,26.50
2015,06,27,12,38,26.50
2015,06,27,12,39,26.60
2015,06,27,12,40,26.70
2015,06,27,12,41,26.70
2015,06,27,12,42,26.80
2015,06,27,12,43,26.90
2015,06,27,12,44,27.00
2015,06,27,12,45,27.10
2015,06,27,12,46,27.10
2015,06,27,12,47,27.20
2015,06,27,12,48,27.20
2015,06,27,12,49,27.30
2015,06,27,12,50,27.30
2015,06,27,12,51,27.30
2015,06,27,12,52,27.40
2015,06,27,12,53,27.40
2015,06,27,12,54,27.40
2015,06,27,12,55,27.40
2015,06,27,12,56,27.40
2015,06,27,12,57,27.50
2015,06,27,12,58,27.50
2015,06,27,12,59,27.60
2015,06,27,13,00,27.60
2015,06,27,13,01,27.70
2015,06,27,13,02,27.80
2015,06,27,13,03,27.90
2015,06,27,13,04,27.90
2015,06,27,13,05,28.00
2015,06,27,13,06,28.10
2015,06,27,13,07,28.20
2015,06,27,13,08,28.40
2015,06,27,13,09,28.50
2015,06,27,13,10,28.60
2015,06,27,13,11,28.70
2015,06,27,13,12,28.70
2015,06,27,13,13,28.80
2015,06,27,13,14,28.70
2015,06,27,13,15,28.50
2015,06,27,13,16,28.30
2015,06,27,13,17,28.20
2015,06,27,13,18,27.90
2015,06,27,13,19,27.70
2015,06,27,13,20,27.60
2015,06,27,13,21,27.50
2015,06,27,13,22,27.40
2015,06,27,13,23,27.30
2015,06,27,13,24,27.30
2015,06,27,13,25,27.30
2015,06,27,13,26,27.30
2015,06,27,13,27,27.40
2015,06,27,13,28,27.40
2015,06,27,13,29,27.40
2015,06,27,13,30,27.30
2015,06,27,13,31,27.30
2015,06,27,13,32,27.20
2015,06,27,13,33,27.20
2015,06,27,13,34,27.10
2015,06,27,13,35,27.00
2015,06,27,13,36,27.00
2015,06,27,13,37,27.10
2015,06,27,13,38,27.10
2015,06,27,13,39,27.20
2015,06,27,13,40,27.20
2015,06,27,13,41,27.20
2015,06,27,13,42,27.10
2015,06,27,13,43,27.20
2015,06,27,13,44,27.30
2015,06,27,13,45,27.30
2015,06,27,13,46,27.30
2015,06,27,13,47,27.30
2015,06,27,13,48,27.30
2015,06,27,13,49,27.20
2015,06,27,13,50,27.10
2015,06,27,13,51,27.00
2015,06,27,13,52,26.90
2015,06,27,13,53,26.90
2015,06,27,13,54,26.80
2015,06,27,13,55,26.60
2015,06,27,13,56,26.40
2015,06,27,13,57,26.30
2015,06,27,13,58,26.30
2015,06,27,13,59,26.30
2015,06,27,14,00,26.30
2015,06,27,14,01,26.30
2015,06,27,14,02,26.30
2015,06,27,14,03,26.40
2015,06,27,14,04,26.40
2015,06,27,14,05,26.30
2015,06,27,14,06,26.30
2015,06,27,14,07,26.20
2015,06,27,14,08,26.20
2015,06,27,14,09,26.30
2015,06,27,14,10,26.30
2015,06,27,14,11,26.40
2015,06,27,14,12,26.50
2015,06,27,14,13,26.50
2015,06,27,14,14,26.60
2015,06,27,14,15,26.80
2015,06,27,14,16,26.90
2015,06,27,14,17,27.00
2015,06,27,14,18,27.00
2015,06,27,14,19,27.10
2015,06,27,14,20,27.10
2015,06,27,14,21,27.10
2015,06,27,14,22,27.10
2015,06,27,14,23,27.20
2015,06,27,14,24,27.30
2015,06,27,14,25,27.30
2015,06,27,14,26,27.30
2015,06,27,14,27,27.40
2015,06,27,14,28,27.40
2015,06,27,14,29,27.60
2015,06,27,14,30,27.70
2015,06,27,14,31,27.70
2015,06,27,14,32,27.80
2015,06,27,14,33,27.80
2015,06,27,14,34,27.80
2015,06,27,14,35,27.90
2015,06,27,14,36,27.90
2015,06,27,14,37,27.90
2015,06,27,14,38,28.10
2015,06,27,14,39,28.20
2015,06,27,14,40,28.20
2015,06,27,14,41,28.30
2015,06,27,14,42,28.40
2015,06,27,14,43,28.50
2015,06,27,14,44,28.60
2015,06,27,14,45,28.70
2015,06,27,14,46,28.70
2015,06,27,14,47,28.70
2015,06,27,14,48,28.70
2015,06,27,14,49,28.50
2015,06,27,14,50,28.30
2015,06,27,14,51,28.20
2015,06,27,14,52,28.10
2015,06,27,14,53,28.10
2015,06,27,14,54,28.20
2015,06,27,14,55,28.20
2015,06,27,14,56,28.20
2015,06,27,14,57,28.30
2015,06,27,14,58,28.30
2015,06,27,14,59,28.30
2015,06,27,15,00,28.40
2015,06,27,15,01,28.40
2015,06,27,15,02,28.40
2015,06,27,15,03,28.40
2015,06,27,15,04,28.50
2015,06,27,15,05,28.60
2015,06,27,15,06,28.60
2015,06,27,15,07,28.70
2015,06,27,15,08,28.70
2015,06,27,15,09,28.70
2015,06,27,15,10,28.80
2015,06,27,15,11,28.80
2015,06,27,15,12,28.80
2015,06,27,15,13,28.80
2015,06,27,15,14,28.70
2015,06,27,15,15,28.70
2015,06,27,15,16,28.70
2015,06,27,15,17,28.80
2015,06,27,15,18,28.80
2015,06,27,15,19,28.90
2015,06,27,15,20,28.90
2015,06,27,15,21,29.00
2015,06,27,15,22,29.10
2015,06,27,15,23,29.20
2015,06,27,15,24,29.30
2015,06,27,15,25,29.40
2015,06,27,15,26,29.50
2015,06,27,15,27,29.50
2015,06,27,15,28,29.50
2015,06,27,15,29,29.60
2015,06,27,15,30,29.60
2015,06,27,15,31,29.70
2015,06,27,15,32,29.70
2015,06,27,15,33,29.80
2015,06,27,15,34,29.80
2015,06,27,15,35,29.80
2015,06,27,15,36,29.80
2015,06,27,15,37,29.80
2015,06,27,15,38,29.80
2015,06,27,15,39,29.80
2015,06,27,15,40,29.70
2015,06,27,15,41,29.70
2015,06,27,15,42,29.70
2015,06,27,15,43,29.80
2015,06,27,15,44,29.80
2015,06,27,15,45,29.80
2015,06,27,15,46,29.80
2015,06,27,15,47,29.80
2015,06,27,15,48,29.80
2015,06,27,15,49,29.80
2015,06,27,15,50,29.70
2015,06,27,15,51,29.70
2015,06,27,15,52,29.70
2015,06,27,15,53,29.70
2015,06,27,15,54,29.70
2015,06,27,15,55,29.80
2015,06,27,15,56,29.80
2015,06,27,15,57,29.80
2015,06,27,15,58,29.90
2015,06,27,15,59,29.90
2015,06,27,16,00,30.00
2015,06,27,16,01,30.10
2015,06,27,16,02,30.20
2015,06,27,16,03,30.20
2015,06,27,16,04,30.30
2015,06,27,16,05,30.40
2015,06,27,16,06,30.50
2015,06,27,16,07,30.60
2015,06,27,16,08,30.50
2015,06,27,16,09,30.50
2015,06,27,16,10,30.60
2015,06,27,16,11,30.60
2015,06,27,16,12,30.60
2015,06,27,16,13,30.60
2015,06,27,16,14,30.60
2015,06,27,16,15,30.60
2015,06,27,16,16,30.60
2015,06,27,16,17,30.50
2015,06,27,16,18,30.50
2015,06,27,16,19,30.40
2015,06,27,16,20,30.40
2015,06,27,16,21,30.20
2015,06,27,16,22,30.00
2015,06,27,16,23,29.90
2015,06,27,16,24,29.70
2015,06,27,16,25,29.60
2015,06,27,16,26,29.50
2015,06,27,16,27,29.40
2015,06,27,16,28,29.20
2015,06,27,16,29,29.10
2015,06,27,16,30,29.00
2015,06,27,16,31,28.90
2015,06,27,16,32,28.80
2015,06,27,16,33,28.70
2015,06,27,16,34,28.70
2015,06,27,16,35,28.60
2015,06,27,16,36,28.60
2015,06,27,16,37,28.60
2015,06,27,16,38,28.70
2015,06,27,16,39,28.70
2015,06,27,16,40,28.80
2015,06,27,16,41,29.00
2015,06,27,16,42,29.10
2015,06,27,16,43,29.20
2015,06,27,16,44,29.30
2015,06,27,16,45,29.40
2015,06,27,16,46,29.40
2015,06,27,16,47,29.50
2015,06,27,16,48,29.50
2015,06,27,16,49,29.50
2015,06,27,16,50,29.50
2015,06,27,16,51,29.50
2015,06,27,16,52,29.40
2015,06,27,16,53,29.40
2015,06,27,16,54,29.40
2015,06,27,16,55,29.30
2015,06,27,16,56,29.10
2015,06,27,16,57,29.00
2015,06,27,16,58,28.90
2015,06,27,16,59,28.80
2015,06,27,17,00,28.60
2015,06,27,17,01,28.50
2015,06,27,17,02,28.30
2015,06,27,17,03,28.20
2015,06,27,17,04,28.10
2015,06,27,17,05,28.00
2015,06,27,17,06,27.80
2015,06,27,17,07,27.70
2015,06,27,17,08,27.50
2015,06,27,17,09,27.40
2015,06,27,17,10,27.20
2015,06,27,17,11,27.10
2015,06,27,17,12,27.00
2015,06,27,17,13,26.90
2015,06,27,17,14,26.90
2015,06,27,17,15,26.80
2015,06,27,17,16,26.80
2015,06,27,17,17,26.80
2015,06,27,17,18,26.80
2015,06,27,17,19,26.80